| time (UTC) | temp F | wind direction | speed MPH | gust MPH | rain 1hr in | rain 24hr in | rain mn in | humidity % | barometer mb |
| 20260506195935 | 64 | 79 | 4.0 | 12.0 | 0.00 | 0.01 | 0.01 | 71 | 1013.9 |
| 20260506195433 | 64 | 61 | 6.0 | 12.0 | 0.00 | 0.01 | 0.01 | 70 | 1013.9 |
| 20260506194934 | 64 | 58 | 3.0 | 9.0 | 0.00 | 0.01 | 0.01 | 70 | 1014.0 |
| 20260506194433 | 64 | 83 | 4.0 | 9.0 | 0.00 | 0.01 | 0.01 | 69 | 1014.1 |
| 20260506193933 | 64 | 68 | 5.0 | 8.0 | 0.00 | 0.01 | 0.01 | 70 | 1014.1 |
| 20260506193434 | 64 | 39 | 3.0 | 12.0 | 0.00 | 0.01 | 0.01 | 72 | 1014.1 |
| 20260506192934 | 63 | 41 | 4.0 | 12.0 | 0.00 | 0.01 | 0.01 | 73 | 1013.8 |
| 20260506192434 | 62 | 84 | 6.0 | 12.0 | 0.00 | 0.01 | 0.01 | 74 | 1013.8 |
| 20260506191434 | 61 | 45 | 7.0 | 17.0 | 0.00 | 0.01 | 0.01 | 75 | 1013.6 |
| 20260506190934 | 61 | 45 | 12.0 | 17.0 | 0.00 | 0.01 | 0.01 | 75 | 1013.3 |
| 20260506185934 | 60 | 34 | 9.0 | 17.0 | 0.00 | 0.01 | 0.01 | 76 | 1013.4 |
| 20260506185434 | 60 | 23 | 7.0 | 17.0 | 0.00 | 0.01 | 0.01 | 77 | 1013.4 |
| 20260506184934 | 59 | 38 | 10.0 | 17.0 | 0.00 | 0.01 | 0.01 | 78 | 1013.3 |
| 20260506184434 | 59 | 31 | 12.0 | 16.0 | 0.00 | 0.01 | 0.01 | 77 | 1013.2 |
| 20260506183934 | 58 | 24 | 10.0 | 15.0 | 0.00 | 0.01 | 0.01 | 78 | 1013.1 |
| 20260506183434 | 58 | 30 | 10.0 | 16.0 | 0.00 | 0.01 | 0.01 | 78 | 1013.3 |
| 20260506182934 | 58 | 56 | 5.0 | 16.0 | 0.00 | 0.01 | 0.01 | 78 | 1013.4 |
| 20260506181434 | 57 | 34 | 9.0 | 17.0 | 0.00 | 0.01 | 0.01 | 79 | 1013.5 |
| 20260506180934 | 57 | 17 | 11.0 | 17.0 | 0.00 | 0.01 | 0.01 | 79 | 1013.4 |
| 20260506180434 | 57 | 27 | 13.0 | 17.0 | 0.00 | 0.01 | 0.01 | 80 | 1013.4 |
| 20260506175934 | 56 | 29 | 10.0 | 21.0 | 0.00 | 0.01 | 0.01 | 79 | 1013.4 |
| 20260506175434 | 56 | 35 | 14.0 | 21.0 | 0.00 | 0.01 | 0.01 | 79 | 1013.7 |
| 20260506174434 | 56 | 41 | 13.0 | 20.0 | 0.00 | 0.01 | 0.01 | 80 | 1013.3 |
| 20260506173435 | 56 | 24 | 15.0 | 20.0 | 0.00 | 0.01 | 0.01 | 80 | 1013.7 |
| 20260506172935 | 55 | 45 | 9.0 | 21.0 | 0.00 | 0.01 | 0.01 | 80 | 1013.3 |
| 20260506172435 | 55 | 41 | 14.0 | 21.0 | 0.00 | 0.01 | 0.01 | 80 | 1013.6 |
| 20260506171935 | 55 | 35 | 10.0 | 14.0 | 0.00 | 0.01 | 0.01 | 80 | 1014.1 |
| 20260506171434 | 55 | 45 | 7.0 | 16.0 | 0.00 | 0.01 | 0.01 | 80 | 1014.1 |
| 20260506170935 | 55 | 39 | 10.0 | 17.0 | 0.00 | 0.01 | 0.01 | 80 | 1014.2 |
| 20260506170434 | 55 | 43 | 7.0 | 17.0 | 0.00 | 0.01 | 0.01 | 80 | 1014.2 |
| 20260506165934 | 55 | 41 | 10.0 | 17.0 | 0.00 | 0.01 | 0.01 | 81 | 1014.2 |
| 20260506165435 | 55 | 42 | 13.0 | 18.0 | 0.00 | 0.01 | 0.01 | 81 | 1014.2 |
| 20260506164434 | 54 | 32 | 10.0 | 20.0 | 0.00 | 0.01 | 0.01 | 82 | 1014.1 |
| 20260506163935 | 54 | 17 | 13.0 | 20.0 | 0.00 | 0.01 | 0.01 | 82 | 1013.9 |
| 20260506163434 | 54 | 13 | 12.0 | 17.0 | 0.00 | 0.01 | 0.01 | 82 | 1013.9 |
| 20260506162935 | 54 | 16 | 12.0 | 17.0 | 0.00 | 0.01 | 0.01 | 82 | 1014.0 |
| 20260506162434 | 54 | 10 | 11.0 | 16.0 | 0.01 | 0.01 | 0.01 | 82 | 1014.1 |
| 20260506161434 | 54 | 7 | 6.0 | 17.0 | 0.01 | 0.01 | 0.01 | 83 | 1014.4 |
| 20260506160935 | 54 | 23 | 13.0 | 17.0 | 0.01 | 0.01 | 0.01 | 83 | 1014.1 |
| 20260506160435 | 54 | 358 | 10.0 | 18.0 | 0.01 | 0.01 | 0.01 | 84 | 1014.1 |
| 20260506155434 | 53 | 22 | 12.0 | 16.0 | 0.01 | 0.01 | 0.01 | 84 | 1013.5 |
| 20260506154935 | 53 | 15 | 7.0 | 13.0 | 0.01 | 0.01 | 0.01 | 85 | 1014.0 |
| 20260506154435 | 53 | 13 | 10.0 | 13.0 | 0.01 | 0.01 | 0.01 | 84 | 1014.4 |
| 20260506153935 | 53 | 9 | 8.0 | 12.0 | 0.01 | 0.01 | 0.01 | 84 | 1014.8 |
| 20260506153436 | 53 | 351 | 5.0 | 8.0 | 0.01 | 0.01 | 0.01 | 84 | 1015.2 |
| 20260506152935 | 54 | 349 | 3.0 | 5.0 | 0.01 | 0.01 | 0.01 | 84 | 1015.4 |
| 20260506152436 | 54 | 359 | 3.0 | 9.0 | 0.00 | 0.00 | 0.00 | 83 | 1015.4 |
| 20260506151936 | 54 | 349 | 4.0 | 9.0 | 0.00 | 0.00 | 0.00 | 83 | 1015.5 |
| 20260506151435 | 54 | 6 | 5.0 | 9.0 | 0.00 | 0.00 | 0.00 | 83 | 1015.3 |
| 20260506150435 | 54 | 46 | 2.0 | 15.0 | 0.00 | 0.00 | 0.00 | 84 | 1014.5 |
| 20260506145935 | 53 | 35 | 9.0 | 17.0 | 0.00 | 0.00 | 0.00 | 84 | 1013.6 |
| 20260506145435 | 53 | 14 | 12.0 | 17.0 | 0.00 | 0.00 | 0.00 | 84 | 1013.7 |
| 20260506144936 | 53 | 13 | 10.0 | 14.0 | 0.00 | 0.00 | 0.00 | 84 | 1013.8 |
| 20260506143936 | 53 | 8 | 5.0 | 15.0 | 0.00 | 0.00 | 0.00 | 84 | 1014.4 |
| 20260506143435 | 53 | 342 | 6.0 | 15.0 | 0.00 | 0.00 | 0.00 | 84 | 1014.3 |
| 20260506142936 | 53 | 14 | 11.0 | 15.0 | 0.00 | 0.00 | 0.00 | 83 | 1014.1 |
| 20260506142436 | 53 | 2 | 11.0 | 15.0 | 0.00 | 0.00 | 0.00 | 83 | 1013.8 |
| 20260506140937 | 53 | 24 | 7.0 | 14.0 | 0.00 | 0.00 | 0.00 | 83 | 1014.4 |
| 20260506135437 | 53 | 7 | 8.0 | 16.0 | 0.00 | 0.00 | 0.00 | 84 | 1013.5 |
| 20260506134937 | 53 | 16 | 11.0 | 16.0 | 0.00 | 0.00 | 0.00 | 84 | 1013.2 |
| 20260506134436 | 52 | 22 | 11.0 | 18.0 | 0.00 | 0.00 | 0.00 | 84 | 1013.0 |
| 20260506133936 | 52 | 21 | 12.0 | 18.0 | 0.00 | 0.00 | 0.00 | 84 | 1013.0 |
| 20260506133436 | 52 | 17 | 10.0 | 14.0 | 0.00 | 0.00 | 0.00 | 84 | 1013.1 |
| 20260506132937 | 53 | 7 | 7.0 | 12.0 | 0.00 | 0.00 | 0.00 | 85 | 1013.3 |
| 20260506131936 | 52 | 358 | 9.0 | 20.0 | 0.00 | 0.00 | 0.00 | 85 | 1013.1 |
| 20260506131435 | 52 | 11 | 8.0 | 20.0 | 0.00 | 0.00 | 0.00 | 85 | 1013.0 |
| 20260506130436 | 52 | 37 | 12.0 | 18.0 | 0.00 | 0.00 | 0.00 | 85 | 1012.8 |
| 20260506125436 | 52 | 21 | 11.0 | 18.0 | 0.00 | 0.00 | 0.00 | 85 | 1012.8 |
| 20260506124937 | 52 | 18 | 10.0 | 16.0 | 0.00 | 0.00 | 0.00 | 85 | 1012.6 |
| 20260506124436 | 52 | 14 | 9.0 | 16.0 | 0.00 | 0.00 | 0.00 | 85 | 1012.4 |
| 20260506123938 | 52 | 12 | 10.0 | 16.0 | 0.00 | 0.00 | 0.00 | 85 | 1012.6 |
| 20260506123438 | 52 | 9 | 12.0 | 17.0 | 0.00 | 0.00 | 0.00 | 85 | 1012.5 |
| 20260506122937 | 52 | 21 | 12.0 | 17.0 | 0.00 | 0.00 | 0.00 | 85 | 1012.5 |
| 20260506122438 | 52 | 359 | 10.0 | 16.0 | 0.00 | 0.00 | 0.00 | 85 | 1012.5 |
| 20260506121936 | 52 | 8 | 8.0 | 16.0 | 0.00 | 0.00 | 0.00 | 85 | 1012.6 |
| 20260506121437 | 52 | 20 | 11.0 | 16.0 | 0.00 | 0.00 | 0.00 | 85 | 1012.4 |
| 20260506120436 | 52 | 14 | 10.0 | 16.0 | 0.00 | 0.00 | 0.00 | 85 | 1012.3 |
| 20260506115936 | 52 | 9 | 12.0 | 16.0 | 0.00 | 0.00 | 0.00 | 85 | 1012.4 |
| 20260506115436 | 52 | 7 | 9.0 | 14.0 | 0.00 | 0.00 | 0.00 | 85 | 1012.2 |
| 20260506114937 | 52 | 8 | 9.0 | 16.0 | 0.00 | 0.00 | 0.00 | 85 | 1012.2 |
| 20260506114436 | 52 | 355 | 10.0 | 18.0 | 0.00 | 0.00 | 0.00 | 85 | 1012.1 |
| 20260506113937 | 52 | 17 | 12.0 | 18.0 | 0.00 | 0.00 | 0.00 | 84 | 1011.9 |
| 20260506113437 | 52 | 11 | 13.0 | 17.0 | 0.00 | 0.00 | 0.00 | 84 | 1011.8 |
| 20260506112437 | 52 | 0 | 14.0 | 18.0 | 0.00 | 0.00 | 0.00 | 84 | 1011.5 |
| 20260506111937 | 52 | 6 | 12.0 | 17.0 | 0.00 | 0.00 | 0.00 | 84 | 1011.4 |
| 20260506111436 | 52 | 6 | 11.0 | 17.0 | 0.00 | 0.00 | 0.00 | 84 | 1011.6 |
| 20260506110937 | 53 | 356 | 10.0 | 18.0 | 0.00 | 0.00 | 0.00 | 83 | 1011.5 |
| 20260506105938 | 53 | 355 | 12.0 | 20.0 | 0.00 | 0.00 | 0.00 | 82 | 1011.3 |
| 20260506105437 | 53 | 350 | 12.0 | 20.0 | 0.00 | 0.00 | 0.00 | 81 | 1011.1 |
| 20260506104937 | 54 | 9 | 14.0 | 20.0 | 0.00 | 0.00 | 0.00 | 80 | 1010.9 |
| 20260506103937 | 54 | 14 | 9.0 | 14.0 | 0.00 | 0.00 | 0.00 | 80 | 1011.0 |
| 20260506103436 | 54 | 6 | 10.0 | 18.0 | 0.00 | 0.00 | 0.00 | 80 | 1011.0 |
| 20260506102937 | 54 | 2 | 12.0 | 18.0 | 0.00 | 0.00 | 0.00 | 79 | 1011.0 |
| 20260506102437 | 54 | 341 | 10.0 | 14.0 | 0.00 | 0.00 | 0.00 | 79 | 1010.9 |
| 20260506101439 | 54 | 12 | 9.0 | 17.0 | 0.00 | 0.00 | 0.00 | 79 | 1010.6 |
| 20260506100437 | 55 | 10 | 10.0 | 15.0 | 0.00 | 0.00 | 0.00 | 78 | 1010.4 |
| 20260506094937 | 55 | 5 | 6.0 | 14.0 | 0.00 | 0.00 | 0.00 | 78 | 1010.4 |
| 20260506093937 | 55 | 19 | 10.0 | 15.0 | 0.00 | 0.00 | 0.00 | 78 | 1010.1 |
| 20260506093439 | 55 | 14 | 12.0 | 15.0 | 0.00 | 0.00 | 0.00 | 77 | 1010.0 |
| 20260506092938 | 55 | 6 | 8.0 | 14.0 | 0.00 | 0.00 | 0.00 | 78 | 1009.9 |
| 20260506092437 | 55 | 10 | 7.0 | 12.0 | 0.00 | 0.00 | 0.00 | 78 | 1009.8 |
| 20260506091939 | 55 | 18 | 9.0 | 12.0 | 0.00 | 0.00 | 0.00 | 78 | 1009.8 |
| 20260506091437 | 55 | 36 | 9.0 | 12.0 | 0.00 | 0.00 | 0.00 | 78 | 1009.7 |
| 20260506085437 | 56 | 13 | 9.0 | 12.0 | 0.00 | 0.00 | 0.00 | 77 | 1009.5 |
| 20260506084937 | 56 | 27 | 9.0 | 13.0 | 0.00 | 0.00 | 0.00 | 77 | 1009.5 |
| 20260506084437 | 56 | 27 | 10.0 | 13.0 | 0.00 | 0.00 | 0.00 | 78 | 1009.5 |
| 20260506083438 | 56 | 10 | 8.0 | 14.0 | 0.00 | 0.00 | 0.00 | 78 | 1009.5 |
| 20260506082939 | 56 | 14 | 7.0 | 13.0 | 0.00 | 0.00 | 0.00 | 78 | 1009.4 |
| 20260506082437 | 56 | 2 | 8.0 | 13.0 | 0.00 | 0.00 | 0.00 | 78 | 1009.5 |
| 20260506081438 | 56 | 10 | 10.0 | 14.0 | 0.00 | 0.00 | 0.00 | 78 | 1009.5 |
| 20260506080938 | 56 | 13 | 9.0 | 13.0 | 0.00 | 0.00 | 0.00 | 78 | 1009.4 |
| 20260506080438 | 56 | 14 | 10.0 | 14.0 | 0.00 | 0.00 | 0.00 | 78 | 1009.4 |
| 20260506073439 | 57 | 19 | 5.0 | 12.0 | 0.00 | 0.00 | 0.00 | 79 | 1008.9 |
| 20260506072938 | 57 | 43 | 3.0 | 12.0 | 0.00 | 0.00 | 0.00 | 79 | 1008.7 |
| 20260506072439 | 57 | 21 | 7.0 | 12.0 | 0.00 | 0.00 | 0.00 | 79 | 1008.6 |
| 20260506071939 | 57 | 24 | 8.0 | 12.0 | 0.00 | 0.00 | 0.00 | 79 | 1008.5 |
| 20260506071438 | 57 | 46 | 6.0 | 12.0 | 0.00 | 0.00 | 0.00 | 79 | 1008.6 |
| 20260506070939 | 57 | 33 | 6.0 | 12.0 | 0.00 | 0.00 | 0.00 | 79 | 1008.8 |
| 20260506070438 | 57 | 25 | 7.0 | 12.0 | 0.00 | 0.00 | 0.00 | 79 | 1008.7 |
| 20260506062439 | 57 | 16 | 7.0 | 13.0 | 0.00 | 0.00 | 0.00 | 80 | 1008.9 |
| 20260506061939 | 57 | 15 | 9.0 | 13.0 | 0.00 | 0.00 | 0.00 | 80 | 1009.1 |
| 20260506060938 | 57 | 7 | 12.0 | 15.0 | 0.00 | 0.00 | 0.00 | 80 | 1009.2 |
| 20260506060438 | 57 | 11 | 10.0 | 15.0 | 0.00 | 0.00 | 0.00 | 80 | 1008.9 |
| 20260506050939 | 59 | 11 | 8.0 | 16.0 | 0.00 | 0.00 | 0.00 | 81 | 1009.0 |
| 20260506050439 | 59 | 9 | 9.0 | 16.0 | 0.00 | 0.00 | 0.00 | 81 | 1008.8 |
| 20260506044939 | 59 | 18 | 12.0 | 17.0 | 0.00 | 0.00 | 0.00 | 82 | 1009.0 |
| 20260506044439 | 59 | 13 | 12.0 | 17.0 | 0.00 | 0.00 | 0.00 | 82 | 1009.0 |
| 20260506043939 | 59 | 8 | 10.0 | 17.0 | 0.00 | 0.00 | 0.00 | 82 | 1009.0 |
| 20260506043440 | 59 | 11 | 12.0 | 15.0 | 0.00 | 0.00 | 0.00 | 82 | 1009.1 |
| 20260506042441 | 59 | 11 | 11.0 | 16.0 | 0.00 | 0.00 | 0.00 | 82 | 1008.9 |
| 20260506041939 | 59 | 9 | 10.0 | 16.0 | 0.00 | 0.00 | 0.00 | 82 | 1008.8 |
| 20260506041439 | 60 | 6 | 12.0 | 16.0 | 0.00 | 0.00 | 0.00 | 82 | 1008.8 |
| 20260506040940 | 60 | 0 | 11.0 | 17.0 | 0.00 | 0.00 | 0.00 | 82 | 1008.7 |
| 20260506040440 | 60 | 11 | 12.0 | 17.0 | 0.00 | 0.00 | 0.00 | 82 | 1008.6 |
| 20260506035939 | 60 | 24 | 11.0 | 15.0 | 0.00 | 0.00 | 0.00 | 82 | 1008.5 |
| 20260506035440 | 60 | 4 | 8.0 | 15.0 | 0.00 | 0.00 | 0.00 | 82 | 1008.5 |
| 20260506034940 | 60 | 8 | 12.0 | 16.0 | 0.00 | 0.00 | 0.00 | 82 | 1008.5 |
| 20260506034440 | 60 | 10 | 11.0 | 16.0 | 0.00 | 0.00 | 0.00 | 82 | 1008.6 |
| 20260506033940 | 60 | 5 | 12.0 | 18.0 | 0.00 | 0.00 | 0.00 | 82 | 1008.3 |
| 20260506033440 | 61 | 15 | 13.0 | 18.0 | 0.00 | 0.00 | 0.00 | 82 | 1008.1 |
| 20260506032940 | 61 | 22 | 10.0 | 17.0 | 0.00 | 0.00 | 0.00 | 82 | 1008.1 |
| 20260506032439 | 61 | 29 | 13.0 | 16.0 | 0.00 | 0.00 | 0.00 | 82 | 1008.0 |
| 20260506031939 | 61 | 4 | 11.0 | 16.0 | 0.00 | 0.00 | 0.00 | 82 | 1008.1 |
| 20260506031440 | 61 | 11 | 10.0 | 15.0 | 0.00 | 0.00 | 0.00 | 82 | 1008.0 |
| 20260506030940 | 61 | 358 | 11.0 | 17.0 | 0.00 | 0.00 | 0.00 | 82 | 1008.1 |
| 20260506030439 | 62 | 3 | 12.0 | 17.0 | 0.00 | 0.00 | 0.00 | 81 | 1008.0 |
| 20260506025939 | 62 | 6 | 12.0 | 15.0 | 0.00 | 0.00 | 0.00 | 81 | 1008.0 |
| 20260506025440 | 62 | 9 | 9.0 | 15.0 | 0.00 | 0.00 | 0.00 | 82 | 1007.7 |
| 20260506024940 | 62 | 9 | 12.0 | 15.0 | 0.00 | 0.00 | 0.00 | 81 | 1007.6 |
| 20260506024439 | 62 | 15 | 10.0 | 15.0 | 0.00 | 0.00 | 0.00 | 81 | 1007.5 |
| 20260506023941 | 63 | 15 | 10.0 | 14.0 | 0.00 | 0.00 | 0.00 | 81 | 1007.4 |
| 20260506022440 | 63 | 12 | 10.0 | 16.0 | 0.00 | 0.00 | 0.00 | 81 | 1006.9 |
| 20260506021940 | 64 | 6 | 9.0 | 15.0 | 0.00 | 0.00 | 0.00 | 81 | 1006.8 |
| 20260506020440 | 64 | 5 | 9.0 | 17.0 | 0.00 | 0.00 | 0.00 | 81 | 1006.2 |
| 20260506015942 | 65 | 358 | 8.0 | 13.0 | 0.00 | 0.00 | 0.00 | 80 | 1006.2 |
| 20260506015441 | 65 | 0 | 7.0 | 13.0 | 0.00 | 0.00 | 0.00 | 80 | 1006.2 |
| 20260506014941 | 66 | 12 | 9.0 | 14.0 | 0.00 | 0.00 | 0.00 | 80 | 1006.0 |
| 20260506014440 | 66 | 13 | 6.0 | 14.0 | 0.00 | 0.00 | 0.00 | 80 | 1005.9 |
| 20260506013940 | 66 | 12 | 11.0 | 15.0 | 0.00 | 0.00 | 0.00 | 79 | 1005.8 |
| 20260506013441 | 66 | 10 | 10.0 | 15.0 | 0.00 | 0.00 | 0.00 | 79 | 1005.6 |
| 20260506012940 | 67 | 17 | 11.0 | 16.0 | 0.00 | 0.00 | 0.00 | 78 | 1005.5 |
| 20260506012440 | 67 | 40 | 7.0 | 16.0 | 0.00 | 0.00 | 0.00 | 79 | 1005.4 |
| 20260506011941 | 67 | 31 | 9.0 | 12.0 | 0.00 | 0.00 | 0.00 | 79 | 1005.2 |
| 20260506011440 | 67 | 24 | 7.0 | 16.0 | 0.00 | 0.00 | 0.00 | 79 | 1005.3 |
| 20260506010942 | 67 | 3 | 8.0 | 16.0 | 0.00 | 0.00 | 0.00 | 79 | 1004.9 |
| 20260506010440 | 67 | 0 | 7.0 | 14.0 | 0.00 | 0.00 | 0.00 | 79 | 1004.6 |
| 20260506005940 | 67 | 357 | 10.0 | 15.0 | 0.00 | 0.00 | 0.00 | 79 | 1004.5 |
| 20260506005442 | 68 | 351 | 10.0 | 15.0 | 0.00 | 0.00 | 0.00 | 79 | 1004.6 |
| 20260506004940 | 68 | 341 | 12.0 | 16.0 | 0.00 | 0.00 | 0.00 | 78 | 1004.5 |
| 20260506003941 | 68 | 336 | 13.0 | 15.0 | 0.00 | 0.00 | 0.00 | 78 | 1004.4 |
| 20260506003441 | 68 | 350 | 9.0 | 16.0 | 0.00 | 0.00 | 0.00 | 78 | 1004.4 |
| 20260506002940 | 68 | 337 | 11.0 | 16.0 | 0.00 | 0.00 | 0.00 | 77 | 1004.2 |
| 20260506002441 | 69 | 343 | 13.0 | 17.0 | 0.00 | 0.00 | 0.00 | 77 | 1004.3 |
| 20260506001941 | 69 | 348 | 9.0 | 20.0 | 0.00 | 0.00 | 0.00 | 77 | 1004.0 |
| 20260506001441 | 69 | 351 | 13.0 | 20.0 | 0.00 | 0.00 | 0.00 | 76 | 1004.3 |
| 20260506000941 | 69 | 353 | 13.0 | 20.0 | 0.00 | 0.00 | 0.00 | 76 | 1004.2 |
| 20260506000440 | 70 | 343 | 13.0 | 20.0 | 0.00 | 0.00 | 0.00 | 76 | 1004.4 |
| 20260505235940 | 70 | 340 | 9.0 | 18.0 | 0.00 | 0.00 | 0.00 | 75 | 1004.2 |
| 20260505235441 | 70 | 348 | 10.0 | 18.0 | 0.00 | 0.00 | 0.00 | 75 | 1004.0 |
| 20260505234943 | 71 | 351 | 13.0 | 18.0 | 0.00 | 0.00 | 0.00 | 75 | 1004.1 |
| 20260505234441 | 71 | 349 | 11.0 | 18.0 | 0.00 | 0.00 | 0.00 | 75 | 1004.2 |
| 20260505233941 | 71 | 350 | 12.0 | 18.0 | 0.00 | 0.00 | 0.00 | 74 | 1004.1 |
| 20260505233441 | 72 | 348 | 11.0 | 18.0 | 0.00 | 0.00 | 0.00 | 75 | 1004.1 |
| 20260505232941 | 72 | 340 | 11.0 | 15.0 | 0.00 | 0.00 | 0.00 | 75 | 1003.9 |
| 20260505232441 | 73 | 353 | 10.0 | 17.0 | 0.00 | 0.00 | 0.00 | 73 | 1003.8 |
| 20260505231941 | 73 | 347 | 12.0 | 17.0 | 0.00 | 0.00 | 0.00 | 73 | 1003.4 |
| 20260505231441 | 73 | 348 | 10.0 | 17.0 | 0.00 | 0.00 | 0.00 | 72 | 1003.7 |
| 20260505230941 | 73 | 344 | 13.0 | 21.0 | 0.00 | 0.00 | 0.00 | 71 | 1003.9 |
| 20260505230441 | 74 | 334 | 13.0 | 21.0 | 0.00 | 0.00 | 0.00 | 71 | 1003.8 |
| 20260505225941 | 74 | 328 | 13.0 | 21.0 | 0.00 | 0.00 | 0.00 | 72 | 1003.9 |
| 20260505224441 | 77 | 332 | 11.0 | 16.0 | 0.00 | 0.00 | 0.00 | 69 | 1003.4 |
| 20260505223941 | 77 | 332 | 11.0 | 16.0 | 0.00 | 0.00 | 0.00 | 69 | 1003.3 |
| 20260505223441 | 77 | 340 | 10.0 | 15.0 | 0.00 | 0.00 | 0.00 | 69 | 1003.1 |
| 20260505221941 | 78 | 344 | 10.0 | 15.0 | 0.00 | 0.00 | 0.00 | 69 | 1002.8 |
| 20260505221441 | 78 | 331 | 9.0 | 18.0 | 0.00 | 0.00 | 0.00 | 69 | 1002.7 |
| 20260505220942 | 79 | 337 | 11.0 | 18.0 | 0.00 | 0.00 | 0.00 | 68 | 1002.6 |
| 20260505220442 | 80 | 350 | 14.0 | 18.0 | 0.00 | 0.00 | 0.00 | 66 | 1002.6 |
| 20260505215942 | 82 | 352 | 12.0 | 18.0 | 0.00 | 0.00 | 0.00 | 64 | 1002.4 |
| 20260505215442 | 83 | 337 | 11.0 | 14.0 | 0.00 | 0.00 | 0.00 | 60 | 1002.2 |
| 20260505214942 | 83 | 324 | 10.0 | 13.0 | 0.00 | 0.00 | 0.00 | 60 | 1002.3 |
| 20260505214441 | 82 | 323 | 9.0 | 14.0 | 0.00 | 0.00 | 0.00 | 61 | 1002.3 |
| 20260505213942 | 82 | 333 | 10.0 | 15.0 | 0.00 | 0.00 | 0.00 | 60 | 1002.4 |
| 20260505212941 | 84 | 324 | 8.0 | 17.0 | 0.00 | 0.00 | 0.00 | 56 | 1002.5 |
| 20260505212441 | 84 | 309 | 9.0 | 17.0 | 0.00 | 0.00 | 0.00 | 54 | 1002.4 |
| 20260505211942 | 84 | 308 | 10.0 | 17.0 | 0.00 | 0.00 | 0.00 | 53 | 1002.5 |
| 20260505210942 | 85 | 321 | 9.0 | 16.0 | 0.00 | 0.00 | 0.00 | 52 | 1002.5 |
| 20260505205942 | 84 | 298 | 12.0 | 15.0 | 0.00 | 0.00 | 0.00 | 49 | 1002.5 |
| 20260505205442 | 84 | 315 | 8.0 | 16.0 | 0.00 | 0.00 | 0.00 | 52 | 1002.6 |
| 20260505204942 | 84 | 320 | 12.0 | 16.0 | 0.00 | 0.00 | 0.00 | 50 | 1002.8 |
| 20260505204442 | 85 | 319 | 9.0 | 20.0 | 0.00 | 0.00 | 0.00 | 50 | 1002.7 |
| 20260505203942 | 86 | 301 | 10.0 | 20.0 | 0.00 | 0.00 | 0.00 | 52 | 1002.7 |
| 20260505203442 | 86 | 278 | 9.0 | 16.0 | 0.00 | 0.00 | 0.00 | 55 | 1002.6 |
| 20260505202942 | 87 | 262 | 9.0 | 16.0 | 0.00 | 0.00 | 0.00 | 56 | 1002.6 |
| 20260505202442 | 87 | 223 | 7.0 | 15.0 | 0.00 | 0.00 | 0.00 | 63 | 1002.5 |
| 20260505201942 | 87 | 228 | 7.0 | 16.0 | 0.00 | 0.00 | 0.00 | 64 | 1002.4 |
| 20260505201442 | 86 | 227 | 11.0 | 16.0 | 0.00 | 0.00 | 0.00 | 63 | 1002.7 |
| 20260505200942 | 86 | 216 | 9.0 | 16.0 | 0.00 | 0.00 | 0.00 | 64 | 1002.8 |
| 20260505200443 | 85 | 223 | 9.0 | 17.0 | 0.00 | 0.00 | 0.00 | 64 | 1002.8 |